Location: Lone Wolf Observatory
(41.0360°N, 89.2260°W)
Time: 07:44:39
(UTC-05:00)

Amateur Radio Satellites - All Passes

Search period start: 24 October 2014 07:14
Search period end: 25 October 2014 07:14
Location: Lone Wolf Observatory, 41.0360°N, 89.2260°W

Satellite Date Start Highest point End Downlink Frequencies (MHz)
Time Altitude Azimuth
STRAND 1 24 Oct 07:26:40 07:31:37 49° 260° (W) 07:36:37 ?
Saudisat 1A 24 Oct 07:38:35 07:42:44 43° 117° (ESE) 07:46:55 436.775 MHz
Hamsat 24 Oct 08:23:09 08:23:43 10° 298° (WNW) 08:24:16 145.90 MHz
RS-15 24 Oct 08:25:32 08:36:32 66° 245° (WSW) 08:48:02 29.354 - 29.394 USB, Beacon 29.352 USB
SO-67 24 Oct 08:29:53 08:33:10 41° 286° (WNW) 08:36:25 435.3500 MHz FM
JAS-2 24 Oct 08:37:21 08:42:12 18° 304° (NW) 08:47:06 435.800 - 435.900 CW/SSB, 435.910 FM
MaSat-1 24 Oct 08:41:34 08:41:58 10° 51° (NE) 08:42:21 437.345 MHz
HO-68 24 Oct 08:47:50 08:53:10 22° 92° (E) 08:58:28 435.675 MHz FM
PANSAT 24 Oct 08:50:12 08:51:32 12° 173° (S) 08:52:52 not established
Saudisat 1A 24 Oct 09:18:59 09:22:29 23° 315° (NW) 09:26:00 436.775 MHz
UKube-1 24 Oct 09:51:07 09:54:30 22° 95° (E) 09:57:51 145.840 MHz, 145.915 MHz
MaSat-1 24 Oct 10:15:37 10:17:41 22° 252° (WSW) 10:19:39 437.345 MHz
FUNcube-1 24 Oct 10:29:32 10:32:50 22° 94° (E) 10:36:04 145.950 - 145.970 MHz USB
PANSAT 24 Oct 10:29:33 10:30:54 12° 186° (S) 10:32:14 not established
Oscar 11 24 Oct 10:32:33 10:36:49 59° 101° (E) 10:41:03 145.825 FM, Beacon 2401.500 USB
HO-68 24 Oct 10:34:16 10:41:26 70° 290° (WNW) 10:48:33 435.675 MHz FM
RS-15 24 Oct 10:42:27 10:46:40 13° 264° (W) 10:50:58 29.354 - 29.394 USB, Beacon 29.352 USB
ZACube-1 24 Oct 11:20:10 11:24:28 84° 103° (ESE) 11:28:38 437.345 MHz
UKube-1 24 Oct 11:26:48 11:30:44 33° 291° (WNW) 11:34:39 145.840 MHz, 145.915 MHz
KITSAT 1 24 Oct 11:39:52 11:46:57 35° 108° (ESE) 11:54:03 435.175 FM
Sapphire 24 Oct 12:00:35 12:04:21 19° 44° (NE) 12:08:07 437.095 MHz 1200 baud AX-25 AFSK
FUNcube-1 24 Oct 12:05:30 12:09:15 30° 290° (WNW) 12:12:55 145.950 - 145.970 MHz USB
Oscar 19 24 Oct 12:08:13 12:10:18 13° 59° (ENE) 12:12:24 437.125 CW, 437.150 USB
ISS 24 Oct 12:10:10 12:12:22 17° 131° (SE) 12:14:35 145.800 FM
Oscar 11 24 Oct 12:10:28 12:12:29 13° 297° (WNW) 12:14:30 145.825 FM, Beacon 2401.500 USB
PCSat 24 Oct 12:22:42 12:27:21 28° 49° (NE) 12:31:57 145.825 MHz
Oscar 10/S400 24 Oct 12:24:06 12:42:06 27° 151° (SSE) 12:57:32 145.825 - 145.975 CW/USB, Beacon 145.810 USB
HO-68 24 Oct 12:24:29 12:27:51 14° 309° (NW) 12:31:14 435.675 MHz FM
Oscar 16 24 Oct 12:51:00 12:55:31 32° 67° (ENE) 13:00:01 437.025 USB, Beacon 2401.1428
AO-Echo 24 Oct 12:51:56 12:54:51 16° 61° (ENE) 12:57:50 ?
SO-50 24 Oct 13:06:53 13:11:17 58° 119° (ESE) 13:15:49 436.795 FM
Uribyol 2 24 Oct 13:10:28 13:14:21 22° 63° (ENE) 13:18:14 436.500 FM
JAS-1B 24 Oct 13:11:42 13:17:14 42° 69° (ENE) 13:22:31 435.800 - 435.900 CW/SSB
ITAMSAT 1 24 Oct 13:16:14 13:20:13 23° 64° (ENE) 13:24:14 435.822 SSB
Gurwin Techsat 1B 24 Oct 13:33:57 13:37:24 18° 62° (ENE) 13:40:52 435.225 FM
KITSAT 1 24 Oct 13:34:08 13:42:01 55° 307° (NW) 13:49:56 435.175 FM
Sapphire 24 Oct 13:42:58 13:48:24 78° 243° (WSW) 13:53:49 437.095 MHz 1200 baud AX-25 AFSK
Oscar 19 24 Oct 13:43:44 13:48:54 86° 256° (WSW) 13:54:05 437.125 CW, 437.150 USB
ISS 24 Oct 13:45:29 13:48:46 56° 327° (NNW) 13:52:04 145.800 FM
TMSAT-1 24 Oct 13:45:41 13:48:58 17° 61° (ENE) 13:52:16 436.925 FM
AO-27 24 Oct 14:00:22 14:05:28 57° 72° (ENE) 14:10:36 436.795 MHz FM
PCSat 24 Oct 14:05:47 14:10:56 46° 248° (WSW) 14:16:04 145.825 MHz
AO-Echo 24 Oct 14:28:13 14:33:02 63° 259° (W) 14:38:03 ?
AO-7 24 Oct 14:28:23 14:34:12 22° 52° (NE) 14:40:01 29.400 - 29.500 MHz
Oscar 16 24 Oct 14:30:14 14:34:48 31° 264° (W) 14:39:22 437.025 USB, Beacon 2401.1428
UOSAT-12 24 Oct 14:33:07 14:37:26 40° 116° (ESE) 14:41:51 437.025 FM, 437.400 FM
Uribyol 2 24 Oct 14:48:24 14:53:27 49° 260° (W) 14:58:32 436.500 FM
SO-50 24 Oct 14:48:54 14:52:14 20° 318° (NW) 14:55:38 436.795 FM
ITAMSAT 1 24 Oct 14:54:24 14:59:23 46° 261° (W) 15:04:26 435.822 SSB
JAS-1B 24 Oct 15:03:18 15:08:07 25° 265° (W) 15:12:44 435.800 - 435.900 CW/SSB
Gurwin Techsat 1B 24 Oct 15:11:36 15:16:51 63° 259° (WSW) 15:22:08 435.225 FM
TMSAT-1 24 Oct 15:23:04 15:28:19 66° 258° (WSW) 15:33:37 436.925 FM
ISS 24 Oct 15:23:46 15:26:00 17° 346° (NNW) 15:28:16 145.800 FM
KITSAT 1 24 Oct 15:34:28 15:39:28 17° 332° (NNW) 15:44:28 435.175 FM
AO-27 24 Oct 15:41:58 15:45:20 17° 268° (W) 15:48:44 436.795 MHz FM
Saudisat 1A 24 Oct 16:05:15 16:09:21 35° 50° (NE) 16:13:25 436.775 MHz
Uosat F 24 Oct 16:12:40 16:17:34 57° 72° (ENE) 16:22:31 435.120 FM
UOSAT-12 24 Oct 16:13:46 16:17:43 27° 314° (NW) 16:21:43 437.025 FM, 437.400 FM
AO-7 24 Oct 16:17:39 16:25:56 90° 251° (WSW) 16:34:16 29.400 - 29.500 MHz
ISS 24 Oct 17:01:50 17:03:44 14° 7° (N) 17:05:37 145.800 FM
JAS-2 24 Oct 17:02:45 17:08:21 45° 67° (ENE) 17:14:40 435.800 - 435.900 CW/SSB, 435.910 FM
Hamsat 24 Oct 17:37:11 17:41:15 50° 74° (ENE) 17:45:19 145.90 MHz
KITSAT 1 24 Oct 17:37:52 17:39:07 10° 4° (N) 17:40:22 435.175 FM
Saudisat 1A 24 Oct 17:45:07 17:48:45 25° 247° (WSW) 17:52:22 436.775 MHz
OPAL 24 Oct 17:53:23 17:58:06 42° 101° (E) 18:02:46 ?
Uosat F 24 Oct 17:53:35 17:56:42 16° 268° (W) 17:59:51 435.120 FM
AO-7 24 Oct 18:14:35 18:19:43 18° 270° (W) 18:24:53 29.400 - 29.500 MHz
ISS 24 Oct 18:38:07 18:41:11 33° 27° (NNE) 18:44:15 145.800 FM
JAS-2 24 Oct 18:48:36 18:53:39 29° 268° (W) 18:59:15 435.800 - 435.900 CW/SSB, 435.910 FM
SO-67 24 Oct 19:01:55 19:05:16 55° 75° (ENE) 19:08:39 435.3500 MHz FM
Hamsat 24 Oct 19:15:26 19:17:29 13° 269° (W) 19:19:32 145.90 MHz
HO-68 24 Oct 19:17:55 19:22:25 18° 54° (NE) 19:26:55 435.675 MHz FM
KITSAT 1 24 Oct 19:32:30 19:38:25 21° 34° (NE) 19:44:18 435.175 FM
OPAL 24 Oct 19:32:52 19:36:43 23° 298° (WNW) 19:40:32 ?
STRAND 1 24 Oct 19:37:12 19:42:17 57° 101° (E) 19:47:19 ?
SO-50 24 Oct 20:00:31 20:01:31 11° 33° (NNE) 20:02:32 436.795 FM
AO-40 24 Oct 20:12:39 22:37:57 33° 205° (SSW) 03:20:49 Beacon 2401.320
ISS 24 Oct 20:14:50 20:17:52 33° 224° (SW) 20:20:53 145.800 FM
RS-15 24 Oct 20:41:12 20:48:17 20° 100° (E) 20:55:16 29.354 - 29.394 USB, Beacon 29.352 USB
UKube-1 24 Oct 20:46:52 20:49:59 20° 65° (ENE) 20:53:08 145.840 MHz, 145.915 MHz
HO-68 24 Oct 21:01:58 21:09:08 88° 73° (ENE) 21:16:21 435.675 MHz FM
STRAND 1 24 Oct 21:17:31 21:21:01 19° 298° (WNW) 21:24:30 ?
FUNcube-1 24 Oct 21:25:53 21:29:12 20° 66° (ENE) 21:32:30 145.950 - 145.970 MHz USB
KITSAT 1 24 Oct 21:27:12 21:35:18 74° 57° (ENE) 21:43:21 435.175 FM
Oscar 11 24 Oct 21:27:20 21:31:27 45° 72° (ENE) 21:35:35 145.825 FM, Beacon 2401.500 USB
SO-50 24 Oct 21:38:25 21:43:10 53° 53° (NE) 21:47:56 436.795 FM
ZACube-1 24 Oct 22:15:54 22:20:27 67° 75° (ENE) 22:24:58 437.345 MHz
UKube-1 24 Oct 22:21:51 22:25:54 38° 261° (W) 22:30:00 145.840 MHz, 145.915 MHz
RS-15 24 Oct 22:47:53 22:58:55 86° 120° (ESE) 23:09:53 29.354 - 29.394 USB, Beacon 29.352 USB
HO-68 24 Oct 22:53:33 22:57:40 16° 270° (W) 23:01:50 435.675 MHz FM
FUNcube-1 24 Oct 23:00:58 23:05:18 41° 262° (W) 23:09:35 145.950 - 145.970 MHz USB
UOSAT-12 24 Oct 23:02:44 23:07:07 36° 49° (NE) 23:11:24 437.025 FM, 437.400 FM
Oscar 11 24 Oct 23:05:14 23:07:51 16° 268° (W) 23:10:29 145.825 FM, Beacon 2401.500 USB
SO-50 24 Oct 23:19:54 23:23:22 20° 250° (WSW) 23:26:50 436.795 FM
KITSAT 1 24 Oct 23:23:49 23:29:54 24° 256° (WSW) 23:35:59 435.175 FM
MaSat-1 24 Oct 23:50:52 23:55:01 65° 114° (ESE) 23:58:46 437.345 MHz
ZACube-1 24 Oct 23:55:33 23:57:14 12° 270° (W) 23:58:55 437.345 MHz
UOSAT-12 25 Oct 00:43:08 00:47:08 28° 247° (WSW) 00:51:03 437.025 FM, 437.400 FM
JAS-1B 25 Oct 00:56:36 00:59:02 12° 90° (E) 01:01:35 435.800 - 435.900 CW/SSB
RS-15 25 Oct 01:03:09 01:12:40 33° 326° (NW) 01:22:18 29.354 - 29.394 USB, Beacon 29.352 USB
Oscar 16 25 Oct 01:06:02 01:06:24 10° 88° (E) 01:06:46 437.025 USB, Beacon 2401.1428
Oscar 10/S400 25 Oct 01:22:28 02:21:33 20° 243° (WSW) 04:38:45 145.825 - 145.975 CW/USB, Beacon 145.810 USB
MaSat-1 25 Oct 01:29:19 01:30:54 12° 308° (NW) 01:32:26 437.345 MHz
Oscar 19 25 Oct 01:55:49 02:00:26 33° 97° (E) 02:05:01 437.125 CW, 437.150 USB
AO-27 25 Oct 02:14:24 02:18:17 21° 93° (E) 02:22:08 436.795 MHz FM
AO-Echo 25 Oct 02:35:23 02:40:28 44° 98° (E) 02:45:30 ?
Oscar 16 25 Oct 02:41:16 02:46:25 88° 285° (WNW) 02:51:32 437.025 USB, Beacon 2401.1428
JAS-1B 25 Oct 02:43:32 02:50:15 76° 104° (ESE) 02:58:19 435.800 - 435.900 CW/SSB
Sapphire 25 Oct 02:44:37 02:47:05 13° 103° (ESE) 02:49:35 437.095 MHz 1200 baud AX-25 AFSK
Uribyol 2 25 Oct 03:01:06 03:06:16 60° 101° (E) 03:11:23 436.500 FM
PCSat 25 Oct 03:05:09 03:09:19 23° 107° (ESE) 03:13:32 145.825 MHz
ITAMSAT 1 25 Oct 03:07:09 03:12:21 64° 102° (ESE) 03:17:31 435.822 SSB
RS-15 25 Oct 03:22:23 03:29:52 20° 1° (N) 03:37:28 29.354 - 29.394 USB, Beacon 29.352 USB
Gurwin Techsat 1B 25 Oct 03:27:55 03:33:08 53° 100° (E) 03:38:19 435.225 FM
OPAL 25 Oct 03:34:00 03:35:05 11° 55° (NE) 03:36:10 ?
Oscar 19 25 Oct 03:35:17 03:39:40 29° 293° (WNW) 03:44:01 437.125 CW, 437.150 USB
TMSAT-1 25 Oct 03:39:04 03:44:14 50° 100° (E) 03:49:22 436.925 FM
AO-27 25 Oct 03:53:00 03:58:02 48° 289° (WNW) 04:03:01 436.795 MHz FM
AO-Echo 25 Oct 04:14:41 04:18:56 25° 295° (WNW) 04:23:10 ?
AO-7 25 Oct 04:19:57 04:27:05 31° 96° (E) 04:34:11 29.400 - 29.500 MHz
Uosat F 25 Oct 04:21:38 04:24:58 18° 92° (E) 04:28:17 435.120 FM
Oscar 16 25 Oct 04:23:18 04:24:58 12° 302° (WNW) 04:26:38 437.025 USB, Beacon 2401.1428
Sapphire 25 Oct 04:24:21 04:29:45 81° 300° (WNW) 04:35:13 437.095 MHz 1200 baud AX-25 AFSK
JAS-1B 25 Oct 04:35:44 04:40:25 21° 298° (WNW) 04:45:37 435.800 - 435.900 CW/SSB
Uribyol 2 25 Oct 04:41:48 04:45:14 18° 298° (WNW) 04:48:40 436.500 FM
PCSat 25 Oct 04:47:09 04:52:23 49° 304° (NW) 04:57:40 145.825 MHz
ITAMSAT 1 25 Oct 04:48:01 04:51:18 17° 299° (WNW) 04:54:35 435.822 SSB
OPAL 25 Oct 05:07:59 05:13:07 78° 72° (ENE) 05:18:14 ?
Gurwin Techsat 1B 25 Oct 05:08:51 05:12:41 21° 297° (WNW) 05:16:30 435.225 FM
STRAND 1 25 Oct 05:18:41 05:19:44 11° 57° (ENE) 05:20:47 ?
TMSAT-1 25 Oct 05:19:50 05:23:47 22° 296° (WNW) 05:27:43 436.925 FM
RS-15 25 Oct 05:37:04 05:46:57 35° 36° (NE) 05:57:07 29.354 - 29.394 USB, Beacon 29.352 USB
JAS-2 25 Oct 05:55:50 06:03:19 47° 97° (E) 06:10:44 435.800 - 435.900 CW/SSB, 435.910 FM
Uosat F 25 Oct 05:59:08 06:04:04 54° 288° (WNW) 06:08:57 435.120 FM
Sapphire 25 Oct 06:11:01 06:14:04 15° 320° (NW) 06:17:08 437.095 MHz 1200 baud AX-25 AFSK
AO-7 25 Oct 06:12:08 06:20:15 60° 294° (WNW) 06:28:22 29.400 - 29.500 MHz
PCSat 25 Oct 06:36:46 06:37:10 10° 326° (NW) 06:37:34 145.825 MHz
OPAL 25 Oct 06:50:30 06:52:31 12° 268° (W) 06:54:32 ?
STRAND 1 25 Oct 06:52:56 06:58:03 81° 75° (ENE) 07:03:13 ?
Hamsat 25 Oct 06:58:29 07:02:41 76° 284° (WNW) 07:06:53 145.90 MHz
